Green Bay, WI

5:05 PM CST on February 24, 2017 (GMT -0600)
Austin Straubel International

Weather History for KGRB - March, 2012

Change the Weather History Date:

Monday, March 5, 2012

  Actual Average Record
Temperature  
Mean Temperature 16 °F 26 °F  
Max Temperature 28 °F 34 °F 57 °F (2000)
Min Temperature 3 °F 18 °F -23 °F (1890)
Degree Days  
Heating Degree Days 49 39  
Month to date heating degree days 193 197  
Since 1 July heating degree days 5037 6037  
Cooling Degree Days 0 0  
Month to date cooling degree days 0 0  
Year to date cooling degree days 0 0  
Moisture  
Dew Point 12 °F    
Average Humidity 75    
Maximum Humidity 96    
Minimum Humidity 53    
Precipitation  
Precipitation T in 0.06 in 1.08 in (2004)
Month to date precipitation 0.65 0.28  
Year to date precipitation 3.17 2.52  
Snow  
Snow T in 0.30 in 5.20 in (1959)
Month to date snowfall 7.3 1.7  
Since 1 July snowfall 30.9 41.9  
Snow Depth 5.00 in    
Sea Level Pressure  
Sea Level Pressure 30.24 in    
Wind  
Wind Speed 7 mph (SSW)    
Max Wind Speed 15 mph    
Max Gust Speed 22 mph    
Visibility 10 miles    
Events      
T = Trace of Precipitation, MM = Missing Value Source: NWS Daily Summary

Daily Weather History Graph

Daily Weather History Graph

Search for Another Location

Airport or City:

Trip Planner

Search our weather history database for the weather conditions in past years. The results will help you decide how hot, cold, wet, or windy it might be!

Date:

Astronomy

Mar. 05, 2012 Rise Set
Actual Time 6:22 AM CST 5:46 PM CST
Civil Twilight 5:52 AM CST 6:15 PM CST
Nautical Twilight 5:19 AM CST 6:49 PM CST
Astronomical Twilight 4:45 AM CST 7:23 PM CST
Moon 2:59 PM CST (3/5) 4:27 AM CST (3/5)
Length of Visible Light 12h 22m
Length of Day
11h 24m
Waxing Gibbous, 91% of the Moon is Illuminated
Mar 5
Waxing Gibbous
Mar 8
Full
Mar 14
Last Quarter
Mar 22
New
Mar 30
First Quarter

Hourly Weather History & Observations

Time (CST) Temp. Windchill Dew Point Humidity Pressure Visibility Wind Dir Wind Speed Gust Speed Precip Events Conditions
12:53 AM 15.1 °F 6.4 °F 12.0 °F 88% 30.10 in 10.0 mi North 5.8 mph - N/A   Overcast
1:17 AM 12.2 °F 4.3 °F 10.4 °F 92% 30.07 in 10.0 mi NNW 4.6 mph - N/A   Scattered Clouds
1:53 AM 9.0 °F -0.9 °F 6.1 °F 88% 30.14 in 10.0 mi NW 5.8 mph - N/A   Clear
2:53 AM 7.0 °F -3.3 °F 3.9 °F 87% 30.16 in 10.0 mi WNW 5.8 mph - N/A   Clear
3:53 AM 7.0 °F -1.7 °F 3.0 °F 84% 30.18 in 10.0 mi WNW 4.6 mph - N/A   Clear
4:53 AM 7.0 °F 0.1 °F 3.9 °F 87% 30.21 in 10.0 mi WNW 3.5 mph - N/A   Clear
5:53 AM 5.0 °F - 1.4 °F 85% 30.19 in 9.0 mi Calm Calm - N/A   Clear
6:53 AM 5.0 °F -2.1 °F 1.0 °F 84% 30.26 in 10.0 mi South 3.5 mph - N/A   Overcast
7:53 AM 10.9 °F - 9.0 °F 92% 30.30 in 8.0 mi Calm Calm - N/A   Overcast
8:53 AM 14.0 °F - 12.9 °F 95% 30.31 in 8.0 mi Calm Calm - N/A   Overcast
9:53 AM 18.0 °F 11.1 °F 14.0 °F 84% 30.32 in 10.0 mi South 4.6 mph - 0.01 in   Clear
10:53 AM 19.9 °F 9.3 °F 12.9 °F 74% 30.32 in 9.0 mi South 9.2 mph - N/A   Clear
11:53 AM 24.1 °F 15.2 °F 14.0 °F 65% 30.33 in 10.0 mi SSW 8.1 mph - N/A   Clear
12:53 PM 25.0 °F 16.3 °F 17.1 °F 72% 30.31 in 10.0 mi South 8.1 mph - N/A   Clear
1:53 PM 27.0 °F 18.0 °F 17.1 °F 66% 30.30 in 10.0 mi South 9.2 mph - N/A   Clear
2:53 PM 28.0 °F 18.1 °F 14.0 °F 56% 30.29 in 10.0 mi South 11.5 mph - N/A   Clear
3:53 PM 28.0 °F 17.5 °F 14.0 °F 56% 30.27 in 10.0 mi South 12.7 mph - N/A   Partly Cloudy
4:53 PM 28.0 °F 18.1 °F 15.1 °F 58% 30.27 in 10.0 mi South 11.5 mph - N/A   Overcast
5:53 PM 27.0 °F 18.0 °F 15.1 °F 61% 30.27 in 10.0 mi South 9.2 mph - N/A   Overcast
6:53 PM 27.0 °F 19.5 °F 16.0 °F 63% 30.26 in 10.0 mi South 6.9 mph - N/A   Overcast
7:53 PM 27.0 °F 18.0 °F 19.0 °F 72% 30.25 in 10.0 mi South 9.2 mph - 0.00 in   Overcast
8:53 PM 28.0 °F 18.6 °F 19.0 °F 69% 30.25 in 10.0 mi South 10.4 mph - N/A   Overcast
9:53 PM 28.0 °F 19.3 °F 19.9 °F 72% 30.22 in 10.0 mi South 9.2 mph - N/A   Overcast
10:53 PM 27.0 °F 17.3 °F 19.0 °F 72% 30.21 in 10.0 mi South 10.4 mph - N/A   Mostly Cloudy
11:53 PM 28.0 °F 18.6 °F 19.9 °F 72% 30.19 in 10.0 mi South 10.4 mph - N/A   Clear